Stanton, MN

8:44 PM CST on December 15, 2019 (GMT -0600)
Stanton

Weather History for KSYN - November, 2019

Change the Weather History Date:

Friday, November 15, 2019

  Actual Average (WUND) Record (WUND)
Temperature  
Mean Temperature 34 °F -  
Max Temperature 43 °F - - (-1)
Min Temperature 24 °F - - (-1)
Degree Days  
Heating Degree Days 32    
Moisture  
Dew Point 28 °F    
Average Humidity 79    
Maximum Humidity 95    
Minimum Humidity 57    
Precipitation  
Precipitation 0.00 in - - ()
Sea Level Pressure  
Sea Level Pressure 30.29 in    
Wind  
Wind Speed 4 mph ()    
Max Wind Speed 10 mph    
Max Gust Speed -    
Visibility 9.6 miles    
Events      
Averages and records for this station are not official NWS values.
T = Trace of Precipitation, MM = Missing Value Source: Averaged Metar Reports

Daily Weather History Graph

Daily Weather History Graph

Search for Another Location

Airport or City:

Astronomy

Nov. 15, 2019 Rise Set
Actual Time 7:08 AM CST 4:44 PM CST
Civil Twilight 6:36 AM CST 5:16 PM CST
Nautical Twilight 6:01 AM CST 5:51 PM CST
Astronomical Twilight 5:27 AM CST 6:25 PM CST
Moon 7:16 PM CST (11/15) 10:09 AM CST (11/15)
Length of Visible Light 10h 39m
Length of Day
9h 36m
Waning Gibbous, 90% of the Moon is Illuminated
Nov 15
Waning Gibbous
Nov 19
Last Quarter
Nov 26
New
Dec 4
First Quarter
Dec 11
Full

Hourly Weather History & Observations

Time (CST) Temp. Windchill Dew Point Humidity Pressure Visibility Wind Dir Wind Speed Gust Speed Precip Events Conditions
12:15 AM 29.1 °F 23.0 °F 24.6 °F 83% 30.21 in 10.0 mi SSW 5.8 mph - N/A   Clear
12:55 AM 27.9 °F 21.5 °F 23.7 °F 84% 30.22 in 10.0 mi SW 5.8 mph - N/A   Scattered Clouds
1:15 AM 28.0 °F 24.2 °F 25.3 °F 90% 30.22 in 10.0 mi SSW 3.5 mph - N/A   Mostly Cloudy
1:35 AM 30.0 °F 25.2 °F 26.2 °F 86% 30.22 in 10.0 mi SSW 4.6 mph - N/A   Overcast
1:55 AM 30.9 °F 26.2 °F 27.1 °F 86% 30.23 in 10.0 mi SSW 4.6 mph - N/A   Overcast
2:15 AM 31.5 °F 26.8 °F 27.5 °F 85% 30.23 in 10.0 mi SSW 4.6 mph - N/A   Overcast
2:16 AM 31.3 °F 26.6 °F 27.5 °F 86% 30.23 in 10.0 mi SSW 4.6 mph - N/A   Overcast
2:35 AM 31.1 °F 26.4 °F 27.5 °F 87% 30.23 in 10.0 mi SSW 4.6 mph - N/A   Overcast
2:55 AM 31.5 °F 28.1 °F 27.9 °F 87% 30.23 in 10.0 mi South 3.5 mph - N/A   Overcast
3:15 AM 31.6 °F 28.3 °F 28.4 °F 88% 30.24 in 10.0 mi SSW 3.5 mph - N/A   Overcast
3:16 AM 31.6 °F 28.3 °F 28.4 °F 88% 30.24 in 10.0 mi SSW 3.5 mph - N/A   Overcast
3:35 AM 32.0 °F 27.5 °F 28.2 °F 86% 30.24 in 10.0 mi SSW 4.6 mph - N/A   Overcast
3:55 AM 31.8 °F - 28.4 °F 87% 30.24 in 10.0 mi Calm Calm - N/A   Overcast
4:15 AM 31.8 °F 27.3 °F 28.4 °F 87% 30.25 in 10.0 mi SSW 4.6 mph - N/A   Overcast
4:16 AM 31.8 °F 27.3 °F 28.4 °F 87% 30.25 in 10.0 mi SSW 4.6 mph - N/A   Overcast
4:35 AM 32.0 °F - 28.4 °F 87% 30.25 in 10.0 mi Calm Calm - N/A   Overcast
4:55 AM 31.8 °F - 28.4 °F 87% 30.25 in 10.0 mi Calm Calm - N/A   Overcast
4:56 AM 31.8 °F - 28.4 °F 87% 30.25 in 10.0 mi Calm Calm - N/A   Overcast
5:15 AM 30.9 °F 27.5 °F 27.9 °F 88% 30.26 in 10.0 mi SSW 3.5 mph - N/A   Overcast
5:35 AM 30.2 °F 26.7 °F 27.3 °F 89% 30.26 in 10.0 mi SSW 3.5 mph - N/A   Overcast
5:55 AM 28.8 °F 23.7 °F 26.1 °F 90% 30.27 in 10.0 mi SSW 4.6 mph - N/A   Overcast
6:15 AM 28.9 °F 25.2 °F 26.4 °F 90% 30.27 in 10.0 mi SSW 3.5 mph - N/A   Mostly Cloudy
6:35 AM 28.0 °F - 25.9 °F 92% 30.28 in 10.0 mi Calm Calm - N/A   Mostly Cloudy
6:55 AM 27.0 °F - 25.2 °F 93% 30.28 in 7.0 mi Calm Calm - N/A   Scattered Clouds
6:56 AM 26.8 °F - 25.0 °F 93% 30.28 in 7.0 mi Calm Calm - N/A   Scattered Clouds
7:15 AM 26.4 °F - 24.4 °F 92% 30.29 in 5.0 mi Calm Calm - N/A   Clear
7:16 AM 26.1 °F - 24.1 °F 92% 30.29 in 4.0 mi Calm Calm - N/A   Clear
7:35 AM 24.3 °F 19.9 °F 22.8 °F 94% 30.30 in 4.0 mi South 3.5 mph - N/A   Clear
7:55 AM 24.8 °F 20.5 °F 23.5 °F 95% 30.31 in 5.0 mi SSW 3.5 mph - N/A   Clear
7:56 AM 24.8 °F - 23.5 °F 95% 30.31 in 5.0 mi Calm Calm - N/A   Clear
8:15 AM 26.6 °F - 25.0 °F 94% 30.31 in 5.0 mi Calm Calm - N/A   Clear
8:35 AM 29.5 °F - 27.0 °F 90% 30.31 in 7.0 mi Calm Calm - N/A   Clear
8:55 AM 31.6 °F - 28.2 °F 87% 30.31 in 10.0 mi Calm Calm - N/A   Clear
9:15 AM 33.8 °F - 29.1 °F 83% 30.32 in 10.0 mi Calm Calm - N/A   Clear
9:35 AM 35.8 °F - 30.2 °F 80% 30.32 in 10.0 mi Calm Calm - N/A   Clear
9:55 AM 37.6 °F 34.0 °F 30.4 °F 75% 30.32 in 10.0 mi ENE 4.6 mph - N/A   Clear
10:15 AM 38.3 °F 33.9 °F 29.1 °F 70% 30.33 in 10.0 mi ENE 5.8 mph - N/A   Clear
10:16 AM 38.3 °F 33.9 °F 29.3 °F 70% 30.33 in 10.0 mi ENE 5.8 mph - N/A   Clear
10:35 AM 39.9 °F 36.7 °F 30.0 °F 68% 30.33 in 10.0 mi ENE 4.6 mph - N/A   Clear
10:55 AM 39.7 °F 34.9 °F 29.3 °F 66% 30.33 in 10.0 mi ENE 6.9 mph - N/A   Clear
11:15 AM 40.8 °F 36.9 °F 29.3 °F 64% 30.33 in 10.0 mi East 5.8 mph - N/A   Clear
11:16 AM 40.8 °F 36.9 °F 29.3 °F 64% 30.33 in 10.0 mi East 5.8 mph - N/A   Clear
11:35 AM 41.4 °F 36.2 °F 29.8 °F 64% 30.32 in 10.0 mi ENE 8.1 mph - N/A   Clear
11:36 AM 41.4 °F 36.2 °F 29.8 °F 64% 30.32 in 10.0 mi East 8.1 mph - N/A   Clear
11:55 AM 42.3 °F 36.8 °F 30.2 °F 62% 30.32 in 10.0 mi ENE 9.2 mph - N/A   Clear
12:15 PM 42.4 °F 37.5 °F 29.8 °F 61% 30.32 in 10.0 mi ENE 8.1 mph - N/A   Clear
12:35 PM 42.6 °F 37.2 °F 28.9 °F 58% 30.32 in 10.0 mi ENE 9.2 mph - N/A   Clear
12:55 PM 42.1 °F 37.1 °F 28.8 °F 59% 30.31 in 10.0 mi East 8.1 mph - N/A   Clear
1:15 PM 41.9 °F 36.9 °F 28.6 °F 59% 30.31 in 10.0 mi East 8.1 mph - N/A   Clear
1:35 PM 42.6 °F 38.4 °F 29.1 °F 59% 30.31 in 10.0 mi East 6.9 mph - N/A   Clear
1:36 PM 42.6 °F 38.4 °F 28.9 °F 58% 30.31 in 10.0 mi East 6.9 mph - N/A   Clear
1:55 PM 42.3 °F 37.9 °F 29.1 °F 60% 30.30 in 10.0 mi East 6.9 mph - N/A   Clear
2:15 PM 43.7 °F 39.7 °F 29.5 °F 57% 30.30 in 10.0 mi ENE 6.9 mph - N/A   Clear
2:16 PM 43.7 °F 39.7 °F 29.5 °F 57% 30.30 in 10.0 mi East 6.9 mph - N/A   Clear
2:35 PM 43.2 °F 39.0 °F 29.3 °F 58% 30.30 in 10.0 mi East 6.9 mph - N/A   Clear
2:55 PM 42.1 °F 37.7 °F 29.7 °F 61% 30.30 in 10.0 mi East 6.9 mph - N/A   Clear
2:56 PM 42.1 °F 39.2 °F 29.7 °F 61% 30.30 in 10.0 mi East 4.6 mph - N/A   Clear
3:15 PM 40.5 °F 35.1 °F 29.5 °F 65% 30.30 in 10.0 mi East 8.1 mph - N/A   Clear
3:35 PM 39.6 °F 34.0 °F 29.3 °F 67% 30.30 in 10.0 mi East 8.1 mph - N/A   Clear
3:55 PM 38.3 °F 31.9 °F 28.6 °F 68% 30.29 in 10.0 mi East 9.2 mph - N/A   Clear
4:15 PM 35.2 °F 29.5 °F 27.5 °F 73% 30.30 in 10.0 mi ENE 6.9 mph - N/A   Clear
4:16 PM 35.1 °F 29.3 °F 27.5 °F 74% 30.30 in 10.0 mi ENE 6.9 mph - N/A   Clear
4:35 PM 33.4 °F - 27.5 °F 79% 30.30 in 10.0 mi Calm Calm - N/A   Clear
4:55 PM 33.3 °F 28.9 °F 27.3 °F 79% 30.30 in 10.0 mi East 4.6 mph - N/A   Clear
4:56 PM 33.1 °F 28.7 °F 27.3 °F 79% 30.30 in 10.0 mi East 4.6 mph - N/A   Clear
5:15 PM 32.0 °F 27.5 °F 26.8 °F 81% 30.29 in 10.0 mi East 4.6 mph - N/A   Clear
5:35 PM 32.0 °F 26.4 °F 26.8 °F 81% 30.29 in 10.0 mi East 5.8 mph - N/A   Clear
5:36 PM 31.8 °F 26.2 °F 26.8 °F 82% 30.29 in 10.0 mi East 5.8 mph - N/A   Clear
5:55 PM 29.1 °F 23.0 °F 25.9 °F 88% 30.29 in 10.0 mi ENE 5.8 mph - N/A   Clear
5:56 PM 29.3 °F 23.2 °F 25.9 °F 87% 30.29 in 10.0 mi ENE 5.8 mph - N/A   Clear
6:15 PM 29.7 °F 22.8 °F 26.2 °F 87% 30.29 in 10.0 mi ENE 6.9 mph - N/A   Clear
6:35 PM 31.1 °F 24.5 °F 27.3 °F 86% 30.29 in 10.0 mi East 6.9 mph - N/A   Clear
6:55 PM 32.0 °F 26.4 °F 27.5 °F 83% 30.29 in 10.0 mi East 5.8 mph - N/A   Clear
7:15 PM 32.2 °F 27.7 °F 27.7 °F 83% 30.29 in 10.0 mi East 4.6 mph - N/A   Clear
7:35 PM 31.1 °F 26.4 °F 27.1 °F 85% 30.30 in 10.0 mi East 4.6 mph - N/A   Clear
7:36 PM 31.1 °F 26.4 °F 27.1 °F 85% 30.30 in 10.0 mi East 4.6 mph - N/A   Clear
7:55 PM 33.8 °F 29.6 °F 28.9 °F 82% 30.29 in 10.0 mi East 4.6 mph - N/A   Clear
8:15 PM 34.2 °F 30.0 °F 29.1 °F 82% 30.29 in 10.0 mi ESE 4.6 mph - N/A   Clear
8:16 PM 34.2 °F 30.0 °F 29.1 °F 82% 30.29 in 10.0 mi ESE 4.6 mph - N/A   Clear
8:35 PM 35.1 °F 30.1 °F 29.1 °F 79% 30.29 in 10.0 mi ESE 5.8 mph - N/A   Clear
8:55 PM 35.6 °F 32.8 °F 29.3 °F 78% 30.29 in 10.0 mi SE 3.5 mph - N/A   Clear
9:15 PM 35.6 °F 29.9 °F 29.7 °F 79% 30.29 in 10.0 mi SE 6.9 mph - N/A   Clear
9:35 PM 35.4 °F 30.5 °F 29.7 °F 80% 30.29 in 10.0 mi SE 5.8 mph - N/A   Clear
9:36 PM 35.4 °F 30.5 °F 29.7 °F 80% 30.29 in 10.0 mi SE 5.8 mph - N/A   Clear
9:55 PM 35.2 °F 31.2 °F 29.7 °F 80% 30.29 in 10.0 mi SE 4.6 mph - N/A   Clear
9:56 PM 35.2 °F 31.2 °F 29.7 °F 80% 30.29 in 10.0 mi SE 4.6 mph - N/A   Clear
10:15 PM 35.1 °F 31.0 °F 29.7 °F 81% 30.29 in 10.0 mi SE 4.6 mph - N/A   Clear
10:35 PM 34.7 °F 28.1 °F 29.7 °F 82% 30.27 in 10.0 mi SE 8.1 mph - N/A   Clear
10:55 PM 35.1 °F 27.4 °F 29.8 °F 81% 30.27 in 10.0 mi SSE 10.4 mph - N/A   Clear
11:15 PM 35.1 °F 27.4 °F 29.8 °F 81% 30.27 in 10.0 mi SSE 10.4 mph - N/A   Clear
11:16 PM 35.1 °F 27.4 °F 29.8 °F 81% 30.27 in 10.0 mi SSE 10.4 mph - N/A   Clear
11:35 PM 34.7 °F 29.6 °F 29.8 °F 82% 30.27 in 10.0 mi SSE 5.8 mph - N/A   Clear
11:55 PM 34.7 °F 31.8 °F 29.8 °F 82% 30.27 in 10.0 mi South 3.5 mph - N/A   Clear